Montrose, CO

11:15 PM MDT on July 27, 2017 (GMT -0600)
Montrose Regional

Weather History for KMTJ - April, 2012

Change the Weather History Date:

Thursday, April 12, 2012

  Actual Average Record
Temperature  
Mean Temperature 46 °F 48 °F  
Max Temperature 56 °F 62 °F 77 °F (2006)
Min Temperature 35 °F 34 °F 18 °F (1997)
Degree Days  
Heating Degree Days 19 17  
Month to date heating degree days 165 222  
Since 1 July heating degree days 5356 5678  
Cooling Degree Days 0 0  
Month to date cooling degree days 0 0  
Year to date cooling degree days 0 0  
Moisture  
Dew Point 23 °F    
Average Humidity 36    
Maximum Humidity 49    
Minimum Humidity 22    
Precipitation  
Precipitation T in 0.03 in 0.28 in (2002)
Month to date precipitation 0.11 0.38  
Year to date precipitation 1.28 2.63  
Sea Level Pressure  
Sea Level Pressure 29.79 in    
Wind  
Wind Speed 10 mph (WSW)    
Max Wind Speed 33 mph    
Max Gust Speed 43 mph    
Visibility 10 miles    
Events Rain    
T = Trace of Precipitation, MM = Missing Value Source: NWS Daily Summary

Daily Weather History Graph

Daily Weather History Graph

Search for Another Location

Airport or City:

Trip Planner

Search our weather history database for the weather conditions in past years. The results will help you decide how hot, cold, wet, or windy it might be!

Date:

Astronomy

Apr. 12, 2012 Rise Set
Actual Time 6:39 AM MDT 7:45 PM MDT
Civil Twilight 6:11 AM MDT 8:13 PM MDT
Nautical Twilight 5:39 AM MDT 8:45 PM MDT
Astronomical Twilight 5:05 AM MDT 9:19 PM MDT
Moon 1:33 AM MDT (4/12) 11:39 AM MDT (4/12)
Length of Visible Light 14h 01m
Length of Day
13h 06m
Waning Gibbous, 58% of the Moon is Illuminated
Apr 12
Waning Gibbous
Apr 13
Last Quarter
Apr 21
New
Apr 29
First Quarter
May 5
Full

Hourly Weather History & Observations

Time (MDT) Temp. Windchill Dew Point Humidity Pressure Visibility Wind Dir Wind Speed Gust Speed Precip Events Conditions
12:53 AM 51.1 °F - 24.1 °F 35% 29.73 in 10.0 mi South 11.5 mph 27.6 mph N/A   Clear
1:53 AM 50.0 °F - 19.0 °F 29% 29.73 in 10.0 mi SW 16.1 mph 25.3 mph N/A   Clear
2:53 AM 48.9 °F - 19.9 °F 32% 29.73 in 10.0 mi West 5.8 mph - N/A   Clear
3:53 AM 48.9 °F - 18.0 °F 29% 29.73 in 10.0 mi WSW 11.5 mph 28.8 mph N/A   Clear
5:53 AM 46.9 °F - 19.9 °F 34% 29.76 in 10.0 mi Calm Calm - N/A   Clear
6:53 AM 46.9 °F - 19.9 °F 34% 29.77 in 10.0 mi North 6.9 mph - N/A   Mostly Cloudy
7:53 AM 46.0 °F 39.6 °F 24.1 °F 42% 29.81 in 10.0 mi WSW 15.0 mph 23.0 mph N/A   Overcast
8:53 AM 45.0 °F 40.6 °F 26.1 °F 48% 29.81 in 10.0 mi WNW 8.1 mph - N/A   Overcast
9:53 AM 46.0 °F 39.9 °F 26.1 °F 46% 29.82 in 10.0 mi West 13.8 mph - N/A   Overcast
10:53 AM 46.0 °F 39.9 °F 28.0 °F 50% 29.84 in 10.0 mi WSW 13.8 mph 25.3 mph N/A   Overcast
11:53 AM 48.0 °F - 26.1 °F 42% 29.83 in 10.0 mi WSW 10.4 mph 19.6 mph N/A   Overcast
12:53 PM 51.1 °F - 25.0 °F 36% 29.80 in 10.0 mi Variable 5.8 mph - N/A   Overcast
1:53 PM 53.1 °F - 24.1 °F 32% 29.77 in 10.0 mi West 8.1 mph 25.3 mph N/A   Mostly Cloudy
2:18 PM 51.8 °F - 26.6 °F 38% 29.90 in 10.0 mi WNW 15.0 mph - N/A   Overcast
2:53 PM 52.0 °F - 27.0 °F 38% 29.75 in 10.0 mi Variable 4.6 mph 23.0 mph N/A   Mostly Cloudy
3:53 PM 46.9 °F - 32.0 °F 56% 29.78 in 10.0 mi WSW 19.6 mph 42.6 mph 0.00 in Rain Light Rain
4:53 PM 55.0 °F - 24.1 °F 30% 29.72 in 10.0 mi WSW 17.3 mph 28.8 mph 0.00 in   Clear
5:53 PM 53.1 °F - 25.0 °F 34% 29.76 in 10.0 mi SSW 16.1 mph - N/A   Partly Cloudy
6:53 PM 53.1 °F - 19.9 °F 27% 29.74 in 10.0 mi SSW 10.4 mph 19.6 mph N/A   Scattered Clouds
7:53 PM 52.0 °F - 14.0 °F 22% 29.74 in 10.0 mi SW 13.8 mph 25.3 mph N/A   Clear
8:53 PM 46.9 °F - 18.0 °F 32% 29.80 in 10.0 mi WNW 10.4 mph - N/A   Clear
9:53 PM 41.0 °F 35.8 °F 18.0 °F 40% 29.84 in 10.0 mi East 8.1 mph - N/A   Clear
10:53 PM 37.9 °F 33.5 °F 18.0 °F 45% 29.85 in 10.0 mi East 5.8 mph - N/A   Clear
11:53 PM 37.9 °F 30.9 °F 18.0 °F 45% 29.86 in 10.0 mi WNW 10.4 mph - N/A   Clear